EXPRESS-AM6

Last updated on Tue Sep 16 2025 00:02:48 GMT+0000 (Coordinated Universal Time)

1 40277U 14064A 25258.59506266 .00000000 00000+0 00000+0 0 9994 2 40277 0.0236 149.7546 0001631 58.2783 53.9828 1.00272490 38813
UTC large
Height (km)
Speed (km/s)
/
Latitude / Longitude
Inclination (degrees)
Orbital Period (minutes)
Azimuth
Elevation
Range (km)
Doppler Factor

Next 0 passes for location: London (51.5072 / 0.1276)

Sorry there are no passes over London.